EHI
0 0 0 0 1 2 3 4 6 8 9 9 6 3 1 0 0 0 0 0 0 0 0 0 0 0 0 0 0 0 0 0 0 0 0 0 0 0 0 0 0 0 0
0 0 0 0 0 1 1 2 3 5 6 6 5 3 1 0 0 0 0 0 0 0 0 0 0 0 0 0 0 0 0 0 0 0 0 0 0 0 0 0 0 0 0
0 0 0 0 0 0 0 0 2 3 5 7 7 6 3 2 1 1 1 0 0 0 0 0 0 0 0 0 0 0 0 0 0 0 0 0 0 0 0 0 0 0 0
0 0 0 0 0 0 0 0 1 3 6 9 10 9 6 4 2 2 1 0 0 0 0 0 0 0 0 0 0 0 0 0 0 0 0 0 0 0 0 0 0 0 0
0 0 0 0 0 0 0 0 1 2 4 7 9 9 6 4 2 1 1 0 0 0 0 0 0 0 0 0 0 0 0 0 0 0 0 0 0 0 0 0 0 0 0
0 0 0 0 0 0 0 0 0 0 1 4 8 8 6 3 1 0 0 0 0 0 0 0 0 0 0 0 0 0 0 0 0 0 0 0 0 0 0 0 0 0 0
0 0 0 0 0 0 0 0 0 0 0 2 5 6 5 2 1 0 0 0 0 0 0 0 0 0 0 0 0 0 0 0 0 0 0 0 0 0 0 0 0 0 0
0 0 0 0 0 0 0 0 0 0 0 1 2 2 2 1 0 0 0 0 0 0 0 0 0 0 0 0 0 0 0 0 0 0 0 0 0 0 0 0 0 0 0
0 0 0 0 0 0 0 0 0 0 0 0 0 0 0 0 0 0 0 0 0 0 0 0 0 0 0 0 0 0 0 0 0 0 0 0 0 0 0 0 0 0 0
0 0 0 0 0 0 0 0 0 0 0 0 0 0 0 0 0 0 0 0 0 0 0 0 0 0 0 0 0 0 0 0 0 0 0 0 0 0 0 0 0 0 0
0 0 0 0 0 0 0 0 0 0 0 0 0 0 0 0 0 0 0 0 0 0 0 0 0 0 0 0 0 0 0 0 0 0 0 0 0 0 0 0 0 0 0
0 0 0 0 0 0 0 0 0 0 0 0 0 0 0 0 0 0 0 0 0 0 0 0 0 0 0 0 0 0 0 0 0 0 0 0 0 0 0 0 0 0 0
0 0 0 0 0 0 0 0 0 0 0 0 0 0 0 0 0 0 0 0 0 0 0 0 0 0 0 0 0 0 0 0 0 0 0 0 0 0 0 0 0 0 0
0 0 0 0 0 0 0 0 0 0 0 0 0 0 0 0 0 0 0 0 0 0 0 0 0 0 0 0 0 0 0 0 0 0 0 0 0 0 0 0 0 0 0
0 0 0 0 0 0 0 0 0 0 0 0 0 0 0 0 0 0 0 0 0 0 0 0 0 0 0 0 0 0 0 0 0 0 0 0 0 0 0 0 0 0 0
0 0 0 0 0 0 0 0 0 0 0 0 0 0 0 0 0 0 0 0 0 0 0 0 0 0 0 0 0 0 0 0 0 0 0 0 0 0 0 0 0 0 0
0 0 0 0 0 0 0 0 0 0 0 0 0 0 0 0 0 0 0 0 0 0 0 0 0 0 0 0 0 0 0 0 0 0 0 0 0 0 0 0 0 0 0
0 0 0 0 0 0 0 0 0 0 0 0 0 0 0 0 0 0 0 0 0 0 0 0 0 0 0 0 0 0 0 0 0 0 0 0 0 0 0 0 0 0 0
0 0 0 0 0 0 0 0 0 0 0 0 0 0 0 0 0 0 0 0 0 0 0 0 0 0 0 0 0 0 0 0 0 0 0 0 0 0 0 0 0 0 0
0 0 0 0 0 0 0 0 0 0 0 0 0 0 0 0 0 0 0 0 0 0 0 0 0 0 0 0 0 0 0 0 0 0 0 0 0 0 0 0 0 0 0
0 0 0 0 0 0 0 0 0 0 0 0 0 0 0 0 0 0 0 0 0 0 0 0 0 0 0 0 0 0 0 0 0 0 0 0 0 0 0 0 0 0 0
0 0 0 0 0 0 0 0 0 0 0 0 0 0 0 0 0 0 0 0 0 0 0 0 0 0 0 0 0 0 0 0 0 0 0 0 0 0 0 0 0 0 0
0 0 0 0 0 0 0 0 0 0 0 0 0 0 0 0 0 0 0 0 0 0 0 0 0 0 0 0 0 0 0 0 0 0 0 0 0 0 0 0 0 0 0
0 0 0 0 0 0 0 0 0 0 0 0 0 0 0 0 0 0 0 0 0 0 0 0 0 0 0 0 0 0 0 0 0 0 0 0 0 0 0 0 0 0 0
0 0 0 0 0 0 0 0 0 0 0 0 0 0 0 0 0 0 0 0 0 0 0 0 0 0 0 0 0 0 0 0 0 0 0 0 0 0 0 0 0 0 0
0 0 0 0 0 0 0 0 0 0 0 0 0 0 0 0 0 0 0 0 0 0 0 0 0 0 0 0 0 0 0 0 0 0 0 0 0 0 0 0 0 0 0
Wind_Speed
6 5 6 7 6 7 8 9 9 8 7 5 5 5 5 4 3 4 5 5 5 5 4 3 3 2 2 3 3 2 2 2 1 1 3 4 4 4 4 3 3 2 2
6 5 5 6 7 8 9 8 9 9 8 6 5 3 3 3 3 3 4 5 5 5 4 4 3 2 2 2 2 2 1 2 1 1 1 3 4 3 3 2 1 1 1
10 8 8 8 7 9 10 9 10 9 8 7 4 3 3 2 2 3 3 3 4 5 4 4 3 2 2 2 2 2 2 2 1 2 2 2 3 3 3 3 2 2 2
10 9 9 8 9 9 8 8 9 9 8 8 7 7 6 5 5 4 3 3 3 4 4 4 3 2 1 1 1 1 1 2 2 1 2 3 3 3 3 2 2 3 3
11 10 10 10 8 7 6 6 7 7 7 8 9 8 6 4 3 3 5 4 3 3 4 3 3 3 2 1 1 1 1 2 2 2 2 2 2 4 4 4 2 1 2
9 9 7 6 5 4 4 5 6 5 5 6 7 8 8 7 6 6 5 4 3 2 3 4 3 3 2 2 1 1 1 1 2 2 2 2 2 2 3 4 3 2 0
7 6 6 6 6 6 6 6 6 5 4 5 6 6 7 8 8 7 6 5 4 2 3 3 3 2 2 1 1 0 1 1 2 2 2 2 2 2 2 3 3 2 1
5 6 7 7 6 6 5 5 6 5 4 5 4 4 5 4 4 5 5 5 4 3 3 3 3 3 2 1 1 0 1 1 2 2 2 1 1 1 2 2 2 2 1
4 5 5 5 5 5 5 5 5 4 4 4 4 4 4 4 5 5 5 4 4 4 4 4 3 2 2 1 1 0 1 1 1 1 1 1 1 1 1 1 2 2 3
3 3 3 3 3 4 3 4 5 5 4 5 5 5 5 5 5 6 6 5 5 4 4 3 3 2 2 1 1 0 1 1 1 1 0 0 0 0 1 1 1 1 2
3 2 2 2 3 3 3 4 4 4 4 5 5 6 6 6 6 6 6 5 4 4 4 3 3 2 1 1 1 0 1 1 0 0 1 1 1 1 1 1 1 1 0
1 1 1 2 2 3 4 4 4 5 5 5 6 6 6 6 6 6 5 5 5 4 4 3 3 2 2 1 1 0 1 1 1 1 2 1 1 1 1 1 1 0 1
1 1 0 1 2 3 4 4 5 5 5 6 6 6 6 6 6 6 5 5 5 4 4 3 3 2 2 2 1 1 1 2 2 2 2 2 2 1 1 1 1 0 1
0 1 2 3 3 4 4 5 5 5 6 6 7 6 6 6 6 5 5 5 5 4 3 3 3 2 2 2 2 2 2 2 2 2 2 2 2 2 1 1 1 1 1
2 2 3 3 3 4 4 4 5 6 6 7 7 6 6 6 6 5 5 4 4 4 4 3 2 2 2 2 2 2 2 3 3 3 2 2 3 3 2 1 1 1 1
3 3 3 3 4 5 5 5 6 6 7 8 7 6 6 6 6 5 5 5 4 3 3 3 3 3 2 3 5 3 2 3 3 3 2 2 3 4 5 5 4 3 2
5 5 5 5 5 6 6 7 7 6 7 7 7 7 7 7 6 6 5 5 4 4 4 3 3 3 3 5 5 5 3 3 3 3 2 2 2 4 3 5 7 6 5
5 6 5 6 5 5 5 5 5 7 7 7 7 8 8 7 6 6 6 5 4 4 3 4 4 3 4 6 5 6 3 2 2 3 3 3 2 2 3 3 3 3 3
4 5 5 6 5 5 4 4 5 6 7 8 8 8 8 8 7 7 6 5 4 4 3 3 4 4 4 7 7 6 3 2 2 2 3 4 3 5 6 4 3 2 1
4 5 5 4 4 3 2 4 5 6 8 8 7 7 8 8 8 7 6 4 4 4 4 4 4 5 4 7 8 8 3 3 2 2 2 5 6 6 6 4 3 3 2
5 5 5 5 5 3 1 3 4 6 6 5 6 6 7 7 7 6 5 5 4 4 4 4 4 4 6 8 10 10 4 4 4 3 3 3 8 8 7 6 4 5 4
5 5 5 5 5 2 0 2 3 3 3 5 6 6 7 6 6 6 6 5 6 6 5 5 4 4 5 8 10 12 11 8 5 4 3 4 9 9 8 6 6 7 5
4 4 4 5 5 3 1 2 2 2 3 5 5 5 6 6 6 7 7 6 6 5 5 5 5 4 4 6 13 14 14 13 6 5 8 9 11 9 6 8 9 6 3
4 4 4 4 4 4 3 2 2 2 4 5 5 5 6 6 6 6 6 6 7 6 6 6 6 5 4 5 5 5 6 10 8 5 8 11 11 8 7 6 5 3 4
4 4 3 4 4 4 3 2 1 2 3 4 4 5 5 6 6 6 6 7 7 8 8 6 6 6 6 9 13 8 6 5 5 4 3 3 2 3 3 3 3 3 3
5 4 4 5 5 4 3 3 2 2 3 3 4 4 4 5 5 5 5 10 11 14 16 13 10 8 11 11 14 16 16 15 14 8 4 5 6 6 6 6 5 5 5
Wind_Direction
238 215 196 186 179 180 178 178 177 177 170 167 172 175 181 177 174 180 182 178 175 173 171 176 183 180 190 211 216 216 236 249 238 276 297 292 276 274 274 273 266 260 240
245 224 207 193 189 186 185 183 182 181 182 183 177 171 165 171 176 176 177 177 172 172 173 173 178 181 189 206 213 205 221 249 200 201 287 313 323 317 313 323 314 307 72
220 214 202 201 198 195 190 190 189 185 185 176 153 132 117 118 154 174 175 177 164 161 156 159 163 168 177 194 206 199 201 237 252 201 208 238 266 305 315 352 15 31 49
218 214 204 202 202 203 194 191 190 185 183 174 171 170 177 188 195 179 165 150 139 137 138 137 139 136 138 165 195 174 187 202 239 253 230 224 217 247 297 322 7 28 29
214 211 206 203 201 196 188 186 184 186 183 181 183 182 185 189 166 145 148 147 131 125 125 126 124 123 124 137 147 172 196 209 222 226 238 252 243 227 235 269 290 357 17
215 212 207 193 186 180 178 177 174 182 181 182 183 186 182 172 161 160 161 154 137 120 125 125 124 124 132 143 167 200 223 233 239 233 222 225 235 230 225 245 245 239 53
198 189 182 180 179 176 177 174 170 176 175 174 179 181 180 174 174 169 166 159 153 152 153 133 128 126 129 129 127 152 256 252 249 242 235 231 235 237 235 245 247 226 181
180 181 182 180 180 178 174 173 173 174 170 168 170 163 161 164 165 160 156 158 154 146 140 128 122 117 110 98 78 87 268 260 254 254 247 245 245 243 238 242 236 240 213
167 171 171 173 176 177 180 178 171 168 165 159 147 140 142 145 142 134 124 124 126 128 127 122 114 102 90 72 57 322 284 274 260 254 247 240 260 272 271 260 239 223 226
135 152 161 174 179 180 179 175 171 168 160 152 147 134 125 123 123 118 118 120 119 117 123 121 115 103 86 67 60 296 282 250 251 241 206 127 20 24 354 299 282 252 224
117 131 162 171 170 167 168 167 166 155 151 146 133 126 124 122 118 118 123 123 118 118 121 121 117 109 90 61 66 280 269 207 211 158 129 98 66 51 9 355 353 332 241
101 129 158 157 170 183 181 175 171 164 159 146 135 131 126 122 120 122 124 124 121 120 121 117 114 113 103 87 96 104 94 152 155 127 121 111 96 70 25 22 29 348 313
69 48 104 215 211 205 196 186 178 170 156 143 139 137 135 134 137 137 134 130 128 125 121 123 126 125 122 111 104 113 99 101 111 115 120 116 113 90 52 44 44 354 359
18 263 258 250 236 219 203 192 185 170 157 149 150 154 155 152 149 143 139 136 133 135 139 139 142 145 142 133 125 121 117 108 97 94 103 110 124 130 119 77 45 64 79
324 287 263 253 244 233 219 201 189 176 163 159 164 169 159 149 144 142 141 138 143 151 152 151 151 149 151 158 147 139 146 134 116 98 90 98 114 128 127 118 97 104 108
312 304 290 275 252 233 222 209 198 186 170 171 174 164 155 152 153 152 151 151 156 158 159 167 169 173 184 184 181 169 157 153 147 136 111 92 79 85 86 84 85 107 134
322 313 295 275 259 241 221 211 202 183 176 177 171 165 162 162 165 162 161 168 173 172 175 179 177 179 191 195 192 183 155 157 162 160 158 145 113 91 75 71 59 53 65
321 314 304 291 277 254 233 211 184 177 180 179 176 171 168 170 167 168 176 178 173 178 182 184 182 181 200 200 190 169 141 147 163 171 174 161 150 155 139 114 80 53 41
303 295 291 285 283 266 231 188 180 180 182 186 185 179 174 172 173 180 182 179 175 181 184 182 183 188 204 201 189 166 148 163 180 188 185 176 185 198 165 143 133 94 33
315 310 312 308 307 289 211 179 186 187 197 196 188 177 174 175 181 184 179 174 176 185 183 191 193 196 207 211 204 184 165 180 194 208 212 204 201 207 181 163 166 180 205
323 328 331 329 317 310 172 185 194 209 207 180 169 171 175 178 178 175 172 173 177 181 190 198 207 209 215 222 218 202 181 190 195 203 212 230 222 216 206 190 188 208 191
328 332 336 333 331 335 140 206 224 215 169 165 172 177 177 177 173 173 178 180 182 191 199 205 217 223 223 224 227 219 210 201 196 205 206 221 227 224 221 209 211 217 186
317 321 325 327 335 344 341 260 258 189 170 172 182 182 178 180 175 177 182 186 193 203 206 209 220 223 217 226 229 227 223 218 205 208 214 219 227 225 226 225 224 215 176
311 314 319 319 320 330 329 285 266 206 185 190 191 184 184 187 185 187 188 194 202 208 210 212 220 221 216 216 222 225 229 226 219 210 223 225 228 219 214 227 234 203 189
309 310 305 298 300 310 309 299 266 210 204 203 199 194 195 195 197 201 204 205 211 210 210 213 210 210 222 224 216 207 211 205 204 181 187 198 203 209 206 213 218 212 213
306 307 305 300 298 298 295 292 270 230 214 216 209 205 203 202 204 208 220 222 221 227 229 226 219 223 228 231 226 223 222 221 216 202 198 208 213 217 218 219 219 216 217